Eastsound, WA
on Friday, November 23, 2012

Friday
Previous Day Next Day
Daily Summary
 ActualAverage (KBLI)Record (KBLI)
Temperature
Mean Temperature °F 42°F  
Max Temperature 50°F 48°F 61°F (1995)
Min Temperature 42°F 35°F 10°F (1985)
Degree Days
Heating Degree Days 19 23  
Month to date heating degree days 482  
Cooling Degree Days 0 0  
Month to date cooling degree days 0  
Year to date cooling degree days 42  
Moisture
Dew Point 43°F   
Average Humidity 87    
Maximum Humidity 100    
Minimum Humidity 58    
Precipitation
Precipitation 0.06 in 0.19 in 1.78 in (1975)
Month to date precipitation 4.51  
Year to date precipitation 30.32  
Wind
Wind Speed 11 mph   
Max Wind Speed 15 mph   
Max Gust Speed 36 mph   
Visibility 8 miles   
Events Rain   

Key: T is trace of precipitation, MM is missing value
Source: NWS Daily Summary
Time(PST)TemperatureDew PointHumidity Pressure Visibility Wind DirectionWind SpeedGust SpeedPrecipitationEvents Conditions
12:15 AM 50.0°F 35.6°F 58% 30.07 in 10.0 miles South 15.0 mph 26.5 mph N/A   Overcast
12:35 AM 50.0°F 35.6°F 58% 30.06 in 10.0 miles South 11.5 mph 24.2 mph N/A   Mostly Cloudy
12:55 AM 50.0°F 35.6°F 58% 30.04 in 10.0 miles South 15.0 mph 25.3 mph N/A   Scattered Clouds
1:15 AM 50.0°F 37.4°F 62% 30.04 in 10.0 miles South 12.7 mph 29.9 mph N/A   Partly Cloudy
1:35 AM 48.2°F 37.4°F 66% 30.03 in 10.0 miles South 13.8 mph 32.2 mph N/A   Partly Cloudy
1:55 AM 48.2°F 37.4°F 66% 30.03 in 10.0 miles South 11.5 mph 25.3 mph N/A   Clear
2:15 AM 48.2°F 37.4°F 66% 30.04 in 10.0 miles South 13.8 mph 35.7 mph N/A   Partly Cloudy
2:35 AM 48.2°F 39.2°F 71% 30.04 in 5.0 miles South 12.7 mph 27.6 mph N/A Rain Light Rain
2:55 AM 46.4°F 39.2°F 76% 30.04 in 5.0 miles South 12.7 mph 23.0 mph N/A Rain Light Rain
3:15 AM 46.4°F 41.0°F 81% 30.02 in 5.0 miles SSE 10.4 mph 25.3 mph N/A Rain Light Rain
3:35 AM 46.4°F 39.2°F 76% 30.01 in 8.0 miles South 15.0 mph 27.6 mph N/A Rain Light Rain
3:55 AM 48.2°F 39.2°F 71% 29.99 in 10.0 miles South 11.5 mph 21.9 mph N/A Rain Light Rain
4:15 AM 46.4°F 41.0°F 81% 30.00 in 8.0 miles South 11.5 mph 20.7 mph N/A Rain Light Rain
4:35 AM 46.4°F 41.0°F 81% 29.99 in 7.0 miles South 11.5 mph 23.0 mph N/A Rain Light Rain
4:55 AM 46.4°F 41.0°F 81% 30.00 in 8.0 miles South 15.0 mph 23.0 mph N/A Rain Light Rain
5:15 AM 46.4°F 41.0°F 81% 30.00 in 5.0 miles South 15.0 mph 23.0 mph 0.01 in Rain Rain
5:35 AM 46.4°F 41.0°F 81% 30.00 in 8.0 miles South 13.8 mph 25.3 mph 0.01 in Rain Light Rain
5:55 AM 46.4°F 41.0°F 81% 30.01 in 9.0 miles South 12.7 mph 21.9 mph 0.01 in Rain Light Rain
6:15 AM 46.4°F 41.0°F 81% 30.01 in 10.0 miles South 12.7 mph 24.2 mph N/A   Mostly Cloudy
6:35 AM 48.2°F 41.0°F 76% 30.01 in 10.0 miles South 11.5 mph 24.2 mph N/A   Overcast
7:15 AM 48.2°F 41.0°F 76% 30.01 in 8.0 miles South 13.8 mph 23.0 mph N/A Rain Light Rain
7:35 AM 48.2°F 41.0°F 76% 30.01 in 10.0 miles South 15.0 mph 24.2 mph N/A   Overcast
7:55 AM 48.2°F 41.0°F 76% 30.01 in 8.0 miles South 12.7 mph 24.2 mph N/A Rain Light Rain
8:15 AM 46.4°F 41.0°F 81% 30.02 in 10.0 miles South 15.0 mph 21.9 mph N/A   Mostly Cloudy
8:35 AM 46.4°F 42.8°F 87% 30.01 in 10.0 miles South 13.8 mph 20.7 mph N/A Rain Light Rain
8:55 AM 48.2°F 42.8°F 82% 30.03 in 10.0 miles South 15.0 mph 24.2 mph N/A   Mostly Cloudy
9:15 AM 48.2°F 42.8°F 82% 30.02 in 10.0 miles South 11.5 mph 24.2 mph N/A   Overcast
9:35 AM 48.2°F 44.6°F 87% 30.02 in 10.0 miles South 11.5 mph 19.6 mph N/A Rain Light Rain
9:55 AM 48.2°F 44.6°F 87% 30.03 in 10.0 miles South 9.2 mph 16.1 mph N/A   Overcast
10:15 AM 48.2°F 44.6°F 87% 30.03 in 10.0 miles South 11.5 mph 19.6 mph N/A   Overcast
10:35 AM 48.2°F 44.6°F 87% 30.04 in 10.0 miles South 8.1 mph 17.3 mph N/A   Overcast
10:55 AM 48.2°F 44.6°F 87% 30.05 in 9.0 miles South 9.2 mph 17.3 mph N/A Rain Light Rain
11:15 AM 48.2°F 44.6°F 87% 30.04 in 5.0 miles South 11.5 mph 17.3 mph N/A   Overcast
11:35 AM 46.4°F 44.6°F 93% 30.04 in 1.8 miles South 11.5 mph 18.4 mph 0.02 in Rain Rain
11:55 AM 46.4°F 46.4°F 100% 30.04 in 1.2 miles South 10.4 mph - 0.03 in Rain Light Rain
12:15 PM 46.4°F 46.4°F 100% 30.02 in 1.5 miles South 11.5 mph - N/A Rain Light Rain
12:35 PM 48.2°F 46.4°F 93% 30.02 in 2.0 miles South 9.2 mph - N/A Rain Light Rain
12:55 PM 48.2°F 46.4°F 93% 30.02 in 2.5 miles SSW 10.4 mph - N/A Rain Light Rain
1:15 PM 48.2°F 46.4°F 93% 30.01 in 1.0 miles South 8.1 mph - 0.02 in Rain Rain
1:35 PM 48.2°F 46.4°F 93% 30.01 in 4.0 miles South 9.2 mph - 0.02 in Rain Light Rain
2:15 PM 48.2°F 46.4°F 93% 30.01 in 7.0 miles South 9.2 mph - N/A   Overcast
2:35 PM 48.2°F 46.4°F 93% 30.01 in 10.0 miles South 8.1 mph - N/A   Overcast
2:55 PM 48.2°F 46.4°F 93% 30.01 in 10.0 miles South 12.7 mph - N/A   Overcast
3:15 PM 48.2°F 46.4°F 93% 30.01 in 10.0 miles South 10.4 mph - N/A   Overcast
3:55 PM 48.2°F 46.4°F 93% 30.01 in 10.0 miles SSW 11.5 mph - N/A   Scattered Clouds
4:15 PM 48.2°F 46.4°F 93% 30.01 in 10.0 miles SSW 10.4 mph - N/A   Scattered Clouds
4:35 PM 48.2°F 46.4°F 93% 30.01 in 10.0 miles South 9.2 mph - N/A   Scattered Clouds
4:55 PM 48.2°F 46.4°F 93% 30.00 in 10.0 miles SSW 9.2 mph - N/A   Mostly Cloudy
5:15 PM 48.2°F 46.4°F 93% 30.00 in 10.0 miles South 6.9 mph - N/A   Mostly Cloudy
5:35 PM 48.2°F 46.4°F 93% 30.00 in 10.0 miles South 4.6 mph - N/A   Scattered Clouds
5:55 PM 48.2°F 46.4°F 93% 30.01 in 10.0 miles South 5.8 mph - N/A   Scattered Clouds
6:15 PM 48.2°F 46.4°F 93% 30.01 in 10.0 miles South 8.1 mph - N/A   Mostly Cloudy
6:35 PM 48.2°F 46.4°F 93% 30.01 in 10.0 miles South 6.9 mph - N/A   Mostly Cloudy
6:55 PM 48.2°F 46.4°F 93% 30.02 in 10.0 miles South 6.9 mph - N/A   Mostly Cloudy
7:15 PM 48.2°F 46.4°F 93% 30.02 in 10.0 miles South 9.2 mph - N/A   Scattered Clouds
7:35 PM 48.2°F 46.4°F 93% 30.02 in 10.0 miles South 3.5 mph - N/A   Partly Cloudy
7:55 PM 46.4°F 46.4°F 100% 30.03 in 10.0 miles South 8.1 mph - N/A   Scattered Clouds
8:15 PM 46.4°F 46.4°F 100% 30.04 in 9.0 miles South 6.9 mph - N/A Rain Light Rain
8:35 PM 46.4°F 46.4°F 100% 30.04 in 5.0 miles Calm Calm - N/A Rain Light Rain
8:55 PM 46.4°F 46.4°F 100% 30.04 in 9.0 miles Calm Calm - N/A Rain Light Rain
9:15 PM 46.4°F 46.4°F 100% 30.04 in 10.0 miles Calm Calm - N/A   Mostly Cloudy
9:35 PM 46.4°F 46.4°F 100% 30.05 in 10.0 miles Calm Calm - N/A   Partly Cloudy
9:55 PM 46.4°F 44.6°F 93% 30.05 in 10.0 miles South 4.6 mph - N/A   Clear
10:15 PM 44.6°F 44.6°F 100% 30.07 in 10.0 miles SSW 4.6 mph - N/A   Clear
10:35 PM 44.6°F 44.6°F 100% 30.08 in 10.0 miles SSW 4.6 mph - N/A   Clear
10:55 PM 42.8°F 42.8°F 100% 30.08 in 9.0 miles SSW 4.6 mph - N/A   Clear
11:15 PM 42.8°F 42.8°F 100% 30.09 in 9.0 miles SSW 5.8 mph - N/A   Clear
11:35 PM 42.8°F 42.8°F 100% 30.09 in 5.0 miles South 6.9 mph - N/A   Clear
11:55 PM 42.8°F 42.8°F 100% 30.10 in 10.0 miles South 5.8 mph - N/A   Clear
Moon Phase
Nov. 23 Nov. 28 Dec. 06 Dec. 13 Dec. 20
Sunrise:07:33 AM (PST) Moon Rise:01:57 PM (PST)11/23
Sunset:04:22 PM (PST) Moon Set:02:38 AM (PST)11/23

Copyright © 2014 The Weather Underground, Inc.